Weather History for Avalon, CA

Change the Weather History Date:

Friday, September 20, 2013

  Actual Average Record
Temperature  
Mean Temperature 60 °F -  
Max Temperature 62 °F 76 °F 89 °F (2012)
Min Temperature 57 °F 60 °F 51 °F (2007)
Degree Days  
Heating Degree Days 6    
Growing Degree Days 10 (Base 50)    
Moisture  
Dew Point 57 °F    
Average Humidity 92    
Maximum Humidity 96    
Minimum Humidity 82    
Precipitation  
Precipitation 0.00 in - - ()
Sea Level Pressure  
Sea Level Pressure 29.87 in    
Wind  
Wind Speed 3 mph (WSW)    
Max Wind Speed 9 mph    
Max Gust Speed -    
Visibility 2 miles    
Events Fog    
Averages and records for this station are not official NWS values.
T = Trace of Precipitation, MM = Missing Value Source: NWS Daily Summary

Daily Weather History Graph

Daily Weather History Graph

Search for Another Location

Airport:

Trip Planner

Search our weather history database for the weather conditions in past years. The results will help you decide how hot, cold, wet, or windy it might be!

Date:

Astronomy

Sep. 20, 2013 Rise Set
Actual Time 6:40 AM PDT 6:52 PM PDT
Civil Twilight 6:15 AM PDT 7:17 PM PDT
Nautical Twilight 5:46 AM PDT 7:46 PM PDT
Astronomical Twilight 5:17 AM PDT 8:15 PM PDT
Moon 7:36 PM PDT (9/20) 7:54 AM PDT (9/20)
Length of Visible Light 13h 01m
Length of Day
12h 11m
Full, 98% of the Moon is Illuminated
Sep 20
Full
Sep 26
Last Quarter
Oct 4
New
Oct 11
First Quarter
Oct 18
Full

Hourly Weather History & Observations

Time (PDT) Temp. Dew Point Humidity Pressure Visibility Wind Dir Wind Speed Gust Speed Precip Events Conditions
12:51 AM 59.0 °F 57.0 °F 93% 29.81 in 0.2 mi ESE 6.9 mph - N/A Fog Fog
1:51 AM 60.1 °F 57.9 °F 93% 29.81 in 0.2 mi East 5.8 mph - N/A Fog Fog
2:51 AM 59.0 °F 57.0 °F 93% 29.81 in 0.5 mi Calm Calm - N/A Fog Fog
3:04 AM 59.0 °F 57.2 °F 94% 29.85 in 1.2 mi Calm Calm - N/A   Overcast
3:16 AM 59.0 °F 57.2 °F 94% 29.85 in 3.0 mi Calm Calm - N/A   Overcast
3:25 AM 59.0 °F 57.2 °F 94% 29.85 in 2.0 mi Calm Calm - N/A   Overcast
3:32 AM 59.0 °F 57.2 °F 94% 29.85 in 1.0 mi Calm Calm - N/A   Overcast
3:41 AM 59.0 °F 57.2 °F 94% 29.85 in 1.8 mi Calm Calm - N/A   Overcast
3:51 AM 59.0 °F 57.9 °F 96% 29.81 in 1.0 mi Calm Calm - N/A   Mist
3:58 AM 59.0 °F 57.2 °F 94% 29.85 in 0.2 mi NNE 3.5 mph - N/A Fog Fog
4:51 AM 59.0 °F 57.0 °F 93% 29.81 in 1.2 mi ESE 3.5 mph - N/A   Overcast
5:01 AM 59.0 °F 57.2 °F 94% 29.85 in 2.5 mi East 4.6 mph - N/A   Overcast
5:06 AM 59.0 °F 57.2 °F 94% 29.85 in 1.0 mi ENE 4.6 mph - N/A   Mist
5:16 AM 59.0 °F 57.2 °F 94% 29.85 in 0.5 mi Calm Calm - N/A Fog Fog
5:49 AM 59.0 °F 57.2 °F 94% 29.86 in 1.2 mi Calm Calm - N/A   Overcast
5:51 AM 59.0 °F 57.0 °F 93% 29.82 in 1.2 mi Calm Calm - N/A   Overcast
6:19 AM 59.0 °F 57.2 °F 94% 29.87 in 3.0 mi Calm Calm - N/A   Overcast
6:51 AM 59.0 °F 57.0 °F 93% 29.84 in 5.0 mi Calm Calm - N/A   Overcast
7:10 AM 59.0 °F 57.2 °F 94% 29.88 in 2.0 mi Variable 3.5 mph - N/A   Overcast
7:38 AM 59.0 °F 57.2 °F 94% 29.88 in 1.8 mi South 3.5 mph - N/A   Overcast
7:42 AM 59.0 °F 57.2 °F 94% 29.88 in 3.0 mi SSE 3.5 mph - N/A   Overcast
7:51 AM 59.0 °F 57.0 °F 93% 29.85 in 4.0 mi SE 4.6 mph - N/A   Overcast
8:51 AM 61.0 °F 55.9 °F 83% 29.86 in 7.0 mi South 4.6 mph - N/A   Overcast
9:29 AM 60.8 °F 55.4 °F 82% 29.91 in 8.0 mi Calm Calm - N/A   Overcast
9:51 AM 62.1 °F 57.0 °F 84% 29.88 in 7.0 mi WSW 4.6 mph - N/A   Overcast
10:10 AM 60.8 °F 57.2 °F 88% 29.92 in 4.0 mi SW 3.5 mph - N/A   Overcast
10:51 AM 61.0 °F 57.9 °F 90% 29.88 in 4.0 mi West 3.5 mph - N/A   Overcast
11:28 AM 60.8 °F 57.2 °F 88% 29.93 in 1.8 mi West 5.8 mph - N/A   Overcast
11:40 AM 60.8 °F 57.2 °F 88% 29.92 in 3.0 mi Variable 3.5 mph - N/A   Overcast
11:47 AM 60.8 °F 57.2 °F 88% 29.92 in 1.8 mi NNE 3.5 mph - N/A   Overcast
11:49 AM 60.8 °F 57.2 °F 88% 29.92 in 0.8 mi Variable 3.5 mph - N/A   Overcast
11:51 AM 61.0 °F 57.9 °F 90% 29.89 in 0.5 mi Calm Calm - N/A Fog Fog
12:51 PM 60.1 °F 57.9 °F 93% 29.89 in 0.2 mi WSW 4.6 mph - N/A Fog Fog
1:51 PM 60.1 °F 57.9 °F 93% 29.88 in 0.2 mi WSW 5.8 mph - N/A Fog Fog
2:51 PM 59.0 °F 57.9 °F 96% 29.88 in 0.2 mi WSW 6.9 mph - N/A Fog Fog
3:46 PM 59.0 °F 57.2 °F 94% 29.90 in 1.2 mi WSW 5.8 mph - N/A   Overcast
3:51 PM 59.0 °F 57.0 °F 93% 29.87 in 1.5 mi WSW 8.1 mph - N/A   Overcast
4:03 PM 59.0 °F 57.2 °F 94% 29.89 in 3.0 mi WSW 6.9 mph - N/A   Overcast
4:08 PM 59.0 °F 57.2 °F 94% 29.89 in 1.8 mi WSW 6.9 mph - N/A   Overcast
4:13 PM 59.0 °F 57.2 °F 94% 29.89 in 0.8 mi WSW 8.1 mph - N/A   Overcast
4:51 PM 57.9 °F 55.9 °F 93% 29.86 in 0.2 mi West 9.2 mph - N/A Fog Fog
5:51 PM 57.9 °F 55.9 °F 93% 29.85 in 0.5 mi West 8.1 mph - N/A Fog Fog
6:51 PM 57.9 °F 55.9 °F 93% 29.85 in 0.5 mi Calm Calm - N/A Fog Fog
6:55 PM 57.2 °F 55.4 °F 94% 29.88 in 1.2 mi SW 3.5 mph - N/A   Overcast
7:09 PM 57.2 °F 55.4 °F 94% 29.88 in 0.8 mi WSW 5.8 mph - N/A   Overcast
7:51 PM 57.0 °F 55.0 °F 93% 29.87 in 0.8 mi West 3.5 mph - N/A   Mist
7:58 PM 57.2 °F 55.4 °F 94% 29.90 in 1.2 mi WSW 3.5 mph - N/A   Overcast
8:51 PM 57.0 °F 55.0 °F 93% 29.88 in 2.5 mi WNW 3.5 mph - N/A   Overcast
9:09 PM 57.2 °F 55.4 °F 94% 29.91 in 1.8 mi Calm Calm - N/A   Overcast
9:13 PM 57.2 °F 55.4 °F 94% 29.91 in 3.0 mi NNW 4.6 mph - N/A   Overcast
9:46 PM 57.2 °F 55.4 °F 94% 29.92 in 2.0 mi West 4.6 mph - N/A   Overcast
9:51 PM 57.0 °F 55.0 °F 93% 29.89 in 1.5 mi WNW 4.6 mph - N/A   Overcast
10:18 PM 57.2 °F 55.4 °F 94% 29.92 in 2.5 mi WNW 4.6 mph - N/A   Overcast
10:37 PM 57.2 °F 55.4 °F 94% 29.92 in 4.0 mi NW 3.5 mph - N/A   Overcast
10:51 PM 57.9 °F 55.0 °F 90% 29.89 in 5.0 mi WNW 3.5 mph - N/A   Overcast
11:51 PM 57.9 °F 55.0 °F 90% 29.88 in 9.0 mi NW 3.5 mph - N/A   Overcast